Location: Godiavel Galaoual
(15.2485°N, 12.6604°W)
Time: 00:15:30
(UTC+00:00)

Transit 4A - Pass Details

Date: 21 June 2021
Orbit: 872 x 972 km, 66.8° (Epoch: 29 July)

Event Time Altitude Azimuth Distance (km) Brightness Sun altitude
Rises 09:40:36 0° 222° (SW) 3,600 10.6 44.2°
Reaches altitude 10° 09:43:25 10° 231° (SW) 2,640 10.0 44.8°
Maximum altitude 09:48:51 33° 293° (WNW) 1,506 9.1 46.1°
Drops below altitude 10° 09:54:09 10° 356° (N) 2,579 10.5 47.3°
Sets 09:56:54 0° 6° (N) 3,505 11.1 47.9°
